Карточка аэропорта UNAA

Внимание!
Информация на этой странице в стадии наполнения.
Если вы не увидели какой-то информации, или заметили неточность - пожалуйста сообщите нам!
Спасибо!
Команда RU-STAFF
Название аэропортаАбакан
Название аэропорта (англ.)Abakan
Превышение830 ft. (253 m.)
Координаты53°44.4', 91°23.118'
Высота перехода1400m
Эшелон переходаQFE>=724mm:FL070; QFE<724:FL080
Коды ответчика5430-5437
Зона ОрВДКрасноярск РПИ (UNKL)
Данные METARUNAA 181630Z 00000MPS CAVOK 08/04 Q1017 R20/CLRD65 NOSIG RMK QFE740
Проноз погоды (TAF)UNAA 181344Z 1815/1915 19003G08MPS 9999 BKN020CB BECMG 1823/1903 24008G18MPS BECMG 1906/1910 30010G20MPS
NOTAMshow/hide NOTAM
AWOS   TABLE

Информация о ВПП

ВПП Длина ВПП (м.) Покрытие Курс ВПП Частота ILS
02R3250Асфальтобетон21110.3
20L3250Асфальтобетон201109.9

Диспетчерские позиции

Позывной Наименование органа УВД Частота
UNAA_R_APPАбакан-Круг134.3
UNAA_TWRАбакан-Старт122.0



Спутниковое изображение